AI7R Weather Reports


Display with metric or nautical units.
time (UTC)temp
F
wind
direction
speed
MPH
gust
MPH
rain 1hr
in
rain 24hr
in
rain mn
in
humidity
%
barometer
mb
20210926013011 66 241 0.0 0.0 0.00 0.01 0.01 54 1013.4
20210926011511 68 241 0.0 0.0 0.00 0.01 0.01 51 1013.8
20210926010033 70 239 0.0 0.0 0.00 0.01 0.01 48 1013.8
20210926000031 72 238 1.0 4.0 0.00 0.01 0.01 43 1013.7
20210925234511 72 245 2.0 5.0 0.00 0.01 0.01 44 1013.7
20210925231511 74 121 1.0 6.0 0.00 0.01 0.01 40 1013.7
20210925230013 74 257 1.0 5.0 0.00 0.01 0.01 41 1013.8
20210925220013 74 207 1.0 6.0 0.00 0.01 0.01 42 1014.4
20210925214510 74 283 2.0 7.0 0.00 0.01 0.01 43 1014.4
20210925213012 73 265 2.0 6.0 0.00 0.01 0.01 45 1014.6
20210925204510 72 155 2.0 10.0 0.00 0.01 0.01 46 1015.2
20210925203009 72 219 1.0 8.0 0.00 0.01 0.01 48 1015.4
20210925200013 71 133 2.0 6.0 0.00 0.01 0.01 48 1016.0
20210925193011 67 159 1.0 7.0 0.00 0.01 0.01 57 1016.6
20210925191512 66 103 0.0 3.0 0.00 0.01 0.01 57 1016.5
20210925190011 66 51 0.0 5.0 0.00 0.01 0.01 66 1016.6
20210925183009 60 297 2.0 10.0 0.00 0.01 0.01 75 1016.8
20210925180011 57 355 0.0 2.0 0.01 0.01 0.01 86 1018.3
20210925171510 58 123 0.0 3.0 0.01 0.01 0.01 84 1019.2
20210925170012 58 172 0.0 0.0 0.00 0.00 0.00 81 1018.9
20210925164514 59 172 0.0 0.0 0.00 0.00 0.00 78 1018.7
20210925163010 59 125 0.0 1.0 0.00 0.00 0.00 78 1018.5
20210925161509 59 128 1.0 5.0 0.00 0.00 0.00 74 1018.6
20210925160025 59 119 0.0 0.0 0.00 0.00 0.00 73 1018.3
20210925154509 59 119 0.0 0.0 0.00 0.00 0.00 73 1017.9
20210925151511 58 117 0.0 2.0 0.00 0.00 0.00 71 1017.5
20210925150011 58 140 0.0 2.0 0.00 0.00 0.00 70 1017.0
20210925144509 59 119 0.0 0.0 0.00 0.00 0.00 68 1016.6
20210925143009 60 78 0.0 0.0 0.00 0.00 0.00 63 1016.3
20210925141510 59 78 0.0 0.0 0.00 0.00 0.00 64 1016.0
20210925140011 60 78 0.0 0.0 0.00 0.00 0.00 62 1016.1
20210925133012 59 90 0.0 0.0 0.00 0.00 0.00 63 1015.8
20210925130016 59 93 0.0 0.0 0.00 0.00 0.00 62 1015.5
20210925124508 59 47 0.0 0.0 0.00 0.00 0.00 60 1015.1
20210925121508 59 47 0.0 0.0 0.00 0.00 0.00 62 1014.7
20210925113009 59 47 0.0 0.0 0.00 0.02 0.00 62 1014.5
20210925111509 60 48 0.0 0.0 0.00 0.02 0.00 60 1014.6
20210925110012 59 48 0.0 0.0 0.00 0.02 0.00 61 1014.5
20210925104527 60 48 0.0 0.0 0.00 0.08 0.00 61 1014.5
20210925103009 60 48 0.0 0.0 0.00 0.08 0.00 61 1014.6
20210925101509 60 42 0.0 0.0 0.00 0.08 0.00 61 1014.7
20210925093028 60 26 0.0 0.0 0.00 0.08 0.00 61 1015.0
20210925083009 60 26 0.0 0.0 0.00 0.08 0.00 63 1015.5
20210925080017 60 26 0.0 0.0 0.00 0.08 0.00 64 1015.5
20210925074525 60 26 0.0 0.0 0.00 0.08 0.00 63 1015.4
20210925073012 60 26 0.0 0.0 0.00 0.08 0.00 63 1015.3
20210925071510 60 26 0.0 0.0 0.00 0.08 0.00 63 1015.3
20210925070014 61 26 0.0 0.0 0.00 0.08 0.00 63 1015.5
20210925061509 60 22 0.0 0.0 0.00 0.08 0.08 64 1015.5
20210925060011 61 39 0.0 1.0 0.00 0.08 0.08 63 1015.4
20210925053009 62 42 0.0 3.0 0.00 0.08 0.08 62 1015.5
20210925050011 62 64 0.0 0.0 0.00 0.08 0.08 61 1015.5
20210925044509 62 64 0.0 0.0 0.00 0.08 0.08 62 1015.4
20210925034509 62 61 0.0 0.0 0.00 0.08 0.08 62 1014.9
20210925033012 62 27 0.0 0.0 0.00 0.08 0.08 62 1014.9
20210925031510 63 333 0.0 0.0 0.00 0.08 0.08 61 1014.6
20210925030012 63 333 0.0 0.0 0.00 0.08 0.08 61 1014.5
20210925024512 63 333 0.0 0.0 0.00 0.08 0.08 61 1014.2
20210925023021 63 306 0.0 0.0 0.00 0.08 0.08 60 1014.2
20210925021529 64 288 0.0 0.0 0.00 0.08 0.08 60 1014.0
20210925020012 65 288 0.0 0.0 0.00 0.08 0.08 57 1013.7